Starlink 34118

operational
NORAD ID: 63900 Int'l Des: 2025-095 Owner: SPXS Country: US Constellation: starlink
LEOCIRCULAR

Starlink 34118について

説明を読み込み中...

リアルタイム位置

3D地球を読み込み中...

次回通過

高度履歴

Altitude vs Time

uPlot chart will show altitude changes over time

軌道要素

1 63900U 25095L 26062.46571188 .00031106 00000-0 11348-2 0 9995
2 63900 42.9997 211.5673 0001124 231.9423 128.1327 15.27590543 46833
Epoch: Mar 3, 2026 • Age: 31 hours

現在のステータス

高度 481.7 km
速度 7.63 km/s
衛星直下点 10.40°N, 112.75°E
打ち上げ日 May 10, 2025
運用期間 0.8 years
タイプ internet

技術仕様

分類 Payload
質量 575.00 kg
乾燥質量 530.00 kg
総質量 575.00 kg
長さ 0.30 m
直径 4.10 m
スパン 29.00 m
形状 Box + pan
製造者 SPXS
バスタイプ Starlink V2MO
フェーズステータス In Orbit
所有者/国 SPXS/US

大規模コンステレーション

Loading constellations...